Terminal Aerodrome Forecast
Issued by NWS Milwaukee/Sullivan, WI

Home | Current Version | Previous Version | Text Only | Print | Product List | Glossary On
Versions: 1 2 3 4 5 6 7 8 9 10 11 12 13 14 15 16 17 18 19 20 21 22 23 24 25 26 27 28 29 30 31 32 33 34 35 36 37 38 39 40 41 42 43 44 45 46
000
FTUS43 KMKX 010900 AAA
TAFMSN
TAF AMD
KMSN 010900Z 0109/0206 12003KT P6SM OVC018
     FM011300 14009KT P6SM BKN025
     FM011500 15011KT P6SM SCT050 BKN250
     FM020000 15006KT P6SM SCT050 BKN080
     FM020500 15005KT 5SM -SHRA VCTS BKN045CB OVC070=

USA.gov is the U.S. government's official web portal to all federal, state and local government web resources and services.